| time (UTC) | temp F | wind direction | speed MPH | gust MPH | rain 1hr in | rain 24hr in | rain mn in | humidity % | barometer mb |
| 20260504081529 | 36 | 262 | 18.0 | 27.0 | 0.03 | 0.80 | 0.16 | 95 | 983.3 |
| 20260504044541 | 39 | 252 | 5.0 | 14.0 | 0.02 | 0.67 | 0.03 | 95 | 976.2 |
| 20260504043033 | 39 | 288 | 7.0 | 16.0 | 0.02 | 0.66 | 0.02 | 95 | 975.4 |
| 20260504041531 | 39 | 255 | 5.0 | 11.0 | 0.02 | 0.66 | 0.02 | 95 | 974.7 |
| 20260504040026 | 40 | 278 | 6.0 | 9.0 | 0.02 | 0.66 | 0.02 | 95 | 974.0 |
| 20260504034525 | 39 | 115 | 0.0 | 2.0 | 0.02 | 0.65 | 0.02 | 95 | 973.5 |
| 20260504033024 | 39 | 115 | 0.0 | 6.0 | 0.02 | 0.65 | 0.01 | 95 | 973.3 |
| 20260504031522 | 39 | 79 | 2.0 | 9.0 | 0.02 | 0.64 | 0.00 | 95 | 973.5 |
| 20260504030027 | 39 | 89 | 4.0 | 14.0 | 0.02 | 0.63 | 0.63 | 95 | 974.0 |
| 20260504024516 | 39 | 113 | 5.0 | 20.0 | 0.02 | 0.63 | 0.63 | 95 | 974.5 |
| 20260504023011 | 39 | 88 | 8.0 | 18.0 | 0.02 | 0.62 | 0.62 | 95 | 975.7 |
| 20260504021508 | 40 | 191 | 8.0 | 19.0 | 0.01 | 0.61 | 0.61 | 95 | 976.7 |
| 20260504020006 | 40 | 134 | 7.0 | 16.0 | 0.00 | 0.61 | 0.61 | 95 | 977.6 |
| 20260504014619 | 40 | 77 | 10.0 | 22.0 | 0.01 | 0.61 | 0.61 | 95 | 978.3 |
| 20260504013101 | 41 | 104 | 10.0 | 21.0 | 0.01 | 0.61 | 0.61 | 95 | 979.1 |
| 20260504011558 | 42 | 133 | 8.0 | 17.0 | 0.02 | 0.61 | 0.61 | 95 | 980.0 |
| 20260504010056 | 42 | 112 | 9.0 | 22.0 | 0.03 | 0.61 | 0.61 | 95 | 980.9 |
| 20260504004547 | 42 | 86 | 5.0 | 11.0 | 0.03 | 0.60 | 0.60 | 95 | 981.4 |
| 20260504003049 | 42 | 73 | 5.0 | 15.0 | 0.05 | 0.60 | 0.60 | 95 | 982.0 |
| 20260504001542 | 41 | 60 | 7.0 | 13.0 | 0.04 | 0.57 | 0.57 | 95 | 982.6 |
| 20260504000038 | 42 | 30 | 7.0 | 28.0 | 0.05 | 0.56 | 0.56 | 95 | 983.1 |
| 20260503234545 | 42 | 43 | 5.0 | 19.0 | 0.06 | 0.56 | 0.56 | 95 | 983.9 |
| 20260503233034 | 41 | 32 | 9.0 | 34.0 | 0.09 | 0.55 | 0.55 | 95 | 984.6 |
| 20260503231530 | 41 | 16 | 8.0 | 21.0 | 0.14 | 0.54 | 0.54 | 95 | 985.5 |
| 20260503230028 | 40 | 30 | 4.0 | 17.0 | 0.16 | 0.53 | 0.53 | 95 | 986.8 |
| 20260503224524 | 40 | 119 | 4.0 | 18.0 | 0.18 | 0.50 | 0.50 | 94 | 987.5 |
| 20260503223023 | 39 | 38 | 11.0 | 20.0 | 0.17 | 0.45 | 0.45 | 94 | 988.0 |
| 20260503221522 | 39 | 53 | 10.0 | 22.0 | 0.17 | 0.40 | 0.40 | 94 | 989.2 |
| 20260503220033 | 39 | 48 | 9.0 | 22.0 | 0.20 | 0.36 | 0.36 | 94 | 990.1 |
| 20260503214509 | 39 | 48 | 5.0 | 12.0 | 0.18 | 0.32 | 0.32 | 94 | 991.7 |
| 20260503213010 | 39 | 31 | 4.0 | 19.0 | 0.15 | 0.28 | 0.28 | 94 | 992.4 |
| 20260503211504 | 39 | 72 | 6.0 | 20.0 | 0.12 | 0.24 | 0.24 | 94 | 993.6 |
| 20260503210002 | 40 | 99 | 4.0 | 16.0 | 0.06 | 0.16 | 0.16 | 93 | 994.1 |
| 20260503204600 | 40 | 105 | 4.0 | 19.0 | 0.06 | 0.14 | 0.14 | 93 | 994.6 |
| 20260503203103 | 41 | 38 | 6.0 | 14.0 | 0.06 | 0.13 | 0.13 | 93 | 994.9 |
| 20260503201556 | 42 | 126 | 4.0 | 17.0 | 0.08 | 0.12 | 0.12 | 93 | 995.6 |
| 20260503200056 | 42 | 128 | 5.0 | 15.0 | 0.07 | 0.09 | 0.09 | 93 | 996.5 |
| 20260503194551 | 43 | 34 | 7.0 | 17.0 | 0.09 | 0.09 | 0.09 | 93 | 996.3 |
| 20260503193053 | 43 | 95 | 6.0 | 14.0 | 0.06 | 0.06 | 0.06 | 93 | 997.7 |
| 20260503191548 | 43 | 70 | 7.0 | 14.0 | 0.04 | 0.04 | 0.04 | 92 | 997.8 |
| 20260503190042 | 44 | 33 | 3.0 | 10.0 | 0.02 | 0.02 | 0.02 | 90 | 999.2 |
| 20260503184554 | 44 | 82 | 5.0 | 14.0 | 0.00 | 0.00 | 0.00 | 87 | 999.6 |
| 20260503183053 | 44 | 345 | 8.0 | 16.0 | 0.00 | 0.00 | 0.00 | 87 | 999.7 |
| 20260503181537 | 43 | 45 | 7.0 | 14.0 | 0.00 | 0.00 | 0.00 | 89 | 1001.5 |
| 20260503180033 | 42 | 43 | 3.0 | 17.0 | 0.00 | 0.00 | 0.00 | 90 | 1002.0 |
| 20260503174531 | 42 | 36 | 7.0 | 16.0 | 0.00 | 0.00 | 0.00 | 91 | 1002.5 |
| 20260503173027 | 42 | 37 | 6.0 | 13.0 | 0.00 | 0.00 | 0.00 | 89 | 1003.4 |
| 20260503171524 | 42 | 34 | 6.0 | 11.0 | 0.00 | 0.00 | 0.00 | 86 | 1004.9 |